| time (UTC) | temp C | wind direction | speed KPH | gust KPH | rain 1hr cm | rain 24hr cm | rain mn cm | humidity % | barometer mb |
| 20260507155344 | 9 | 350 | 1.6 | 11.3 | 0.00 | 0.00 | 0.00 | 44 | 1012.3 |
| 20260507154310 | 9 | 313 | 3.2 | 16.1 | 0.00 | 0.00 | 0.00 | 42 | 1012.3 |
| 20260507153331 | 9 | 340 | 3.2 | 20.9 | 0.00 | 0.00 | 0.00 | 43 | 1012.3 |
| 20260507152354 | 10 | 57 | 4.8 | 20.9 | 0.00 | 0.00 | 0.00 | 39 | 1012.1 |
| 20260507150245 | 10 | 305 | 3.2 | 16.1 | 0.00 | 0.00 | 0.00 | 37 | 1012.1 |
| 20260507145230 | 10 | 27 | 6.4 | 16.1 | 0.00 | 0.00 | 0.00 | 40 | 1012.0 |
| 20260507144158 | 9 | 28 | 6.4 | 17.7 | 0.00 | 0.00 | 0.00 | 40 | 1012.0 |
| 20260507143152 | 9 | 344 | 6.4 | 19.3 | 0.00 | 0.00 | 0.00 | 38 | 1012.1 |
| 20260507142152 | 9 | 283 | 6.4 | 19.3 | 0.00 | 0.00 | 0.00 | 37 | 1012.2 |
| 20260507141144 | 8 | 319 | 6.4 | 17.7 | 0.00 | 0.00 | 0.00 | 38 | 1012.1 |
| 20260507140111 | 8 | 325 | 6.4 | 17.7 | 0.00 | 0.00 | 0.00 | 40 | 1012.0 |
| 20260507135127 | 8 | 5 | 3.2 | 12.9 | 0.00 | 0.00 | 0.00 | 41 | 1012.1 |
| 20260507134121 | 7 | 0 | 4.8 | 17.7 | 0.00 | 0.00 | 0.00 | 41 | 1012.1 |
| 20260507133113 | 7 | 316 | 3.2 | 16.1 | 0.00 | 0.00 | 0.00 | 40 | 1012.0 |
| 20260507132047 | 7 | 301 | 0.0 | 0.0 | 0.00 | 0.00 | 0.00 | 43 | 1012.0 |
| 20260507125840 | 4 | 246 | 0.0 | 3.2 | 0.00 | 0.00 | 0.00 | 54 | 1011.6 |
| 20260507124824 | 2 | 355 | 0.0 | 4.8 | 0.00 | 0.00 | 0.00 | 57 | 1011.6 |
| 20260507123823 | 1 | 31 | 0.0 | 0.0 | 0.00 | 0.00 | 0.00 | 59 | 1011.5 |
| 20260507122837 | 1 | 355 | 0.0 | 0.0 | 0.00 | 0.00 | 0.00 | 59 | 1011.3 |
| 20260507121825 | 1 | 289 | 0.0 | 4.8 | 0.00 | 0.00 | 0.00 | 58 | 1011.3 |
| 20260507120755 | 0 | 341 | 0.0 | 0.0 | 0.00 | 0.00 | 0.00 | 58 | 1011.2 |
| 20260507115746 | 1 | 341 | 0.0 | 0.0 | 0.00 | 0.00 | 0.00 | 57 | 1011.3 |
| 20260507114737 | 1 | 0 | 0.0 | 0.0 | 0.00 | 0.00 | 0.00 | 56 | 1011.3 |
| 20260507113725 | 1 | 0 | 0.0 | 0.0 | 0.00 | 0.00 | 0.00 | 55 | 1011.0 |
| 20260507112728 | 1 | 306 | 0.0 | 0.0 | 0.00 | 0.00 | 0.00 | 54 | 1011.1 |
| 20260507111735 | 1 | 306 | 0.0 | 0.0 | 0.00 | 0.00 | 0.00 | 55 | 1011.0 |
| 20260507110732 | 1 | 5 | 0.0 | 0.0 | 0.00 | 0.00 | 0.00 | 54 | 1011.0 |
| 20260507105707 | 1 | 5 | 0.0 | 0.0 | 0.00 | 0.00 | 0.00 | 54 | 1011.0 |
| 20260507104634 | 1 | 5 | 0.0 | 0.0 | 0.00 | 0.00 | 0.00 | 54 | 1010.9 |
| 20260507103605 | 1 | 5 | 0.0 | 0.0 | 0.00 | 0.00 | 0.00 | 53 | 1010.7 |
| 20260507102616 | 1 | 5 | 0.0 | 0.0 | 0.00 | 0.00 | 0.00 | 52 | 1010.7 |
| 20260507101631 | 1 | 5 | 0.0 | 0.0 | 0.00 | 0.00 | 0.00 | 51 | 1010.8 |
| 20260507100632 | 2 | 18 | 0.0 | 0.0 | 0.00 | 0.00 | 0.00 | 49 | 1010.6 |
| 20260507093307 | 2 | 34 | 0.0 | 6.4 | 0.00 | 0.00 | 0.00 | 49 | 1010.7 |
| 20260507092235 | 2 | 340 | 0.0 | 1.6 | 0.00 | 0.00 | 0.00 | 49 | 1010.7 |
| 20260507091201 | 2 | 346 | 0.0 | 1.6 | 0.00 | 0.00 | 0.00 | 49 | 1010.8 |
| 20260507084953 | 2 | 344 | 0.0 | 4.8 | 0.00 | 0.00 | 0.00 | 50 | 1010.5 |
| 20260507082810 | 2 | 34 | 0.0 | 0.0 | 0.00 | 0.00 | 0.00 | 49 | 1010.6 |
| 20260507081818 | 2 | 340 | 0.0 | 0.0 | 0.00 | 0.00 | 0.00 | 46 | 1010.5 |
| 20260507075659 | 2 | 350 | 0.0 | 0.0 | 0.00 | 0.00 | 0.00 | 49 | 1010.5 |
| 20260507074712 | 2 | 340 | 0.0 | 0.0 | 0.00 | 0.00 | 0.00 | 46 | 1010.6 |
| 20260507073703 | 2 | 10 | 0.0 | 3.2 | 0.00 | 0.00 | 0.00 | 46 | 1010.7 |
| 20260507072650 | 1 | 296 | 0.0 | 0.0 | 0.00 | 0.00 | 0.00 | 48 | 1010.7 |
| 20260507071627 | 2 | 343 | 0.0 | 4.8 | 0.00 | 0.00 | 0.00 | 46 | 1010.8 |
| 20260507070636 | 2 | 336 | 1.6 | 9.7 | 0.00 | 0.00 | 0.00 | 48 | 1010.8 |
| 20260507064504 | 1 | 326 | 0.0 | 8.0 | 0.00 | 0.00 | 0.00 | 48 | 1010.7 |
| 20260507062358 | 1 | 28 | 0.0 | 1.6 | 0.00 | 0.00 | 0.00 | 50 | 1011.0 |
| 20260507061414 | 1 | 0 | 0.0 | 3.2 | 0.00 | 0.00 | 0.00 | 52 | 1011.0 |
| 20260507060357 | 1 | 40 | 0.0 | 1.6 | 0.00 | 0.00 | 0.00 | 50 | 1011.1 |
| 20260507055343 | 1 | 355 | 0.0 | 4.8 | 0.00 | 0.00 | 0.00 | 51 | 1011.1 |
| 20260507054358 | 0 | 19 | 0.0 | 3.2 | 0.00 | 0.00 | 0.00 | 52 | 1011.2 |
| 20260507052224 | 0 | 304 | 0.0 | 1.6 | 0.00 | 0.00 | 0.00 | 52 | 1011.3 |
| 20260507051230 | 0 | 304 | 0.0 | 3.2 | 0.00 | 0.00 | 0.00 | 53 | 1011.2 |
| 20260507045112 | -1 | 304 | 0.0 | 0.0 | 0.00 | 0.00 | 0.00 | 61 | 1011.4 |
| 20260507044126 | -1 | 304 | 0.0 | 0.0 | 0.00 | 0.00 | 0.00 | 62 | 1011.4 |
| 20260507043131 | -2 | 304 | 0.0 | 0.0 | 0.00 | 0.00 | 0.00 | 67 | 1011.6 |
| 20260507042129 | -1 | 304 | 0.0 | 0.0 | 0.00 | 0.00 | 0.00 | 64 | 1011.6 |
| 20260507041133 | -1 | 304 | 0.0 | 0.0 | 0.00 | 0.00 | 0.00 | 65 | 1011.6 |
| 20260507040132 | -1 | 304 | 0.0 | 0.0 | 0.00 | 0.00 | 0.00 | 64 | 1011.7 |
| 20260507034007 | -1 | 304 | 0.0 | 0.0 | 0.00 | 0.00 | 0.00 | 65 | 1012.0 |
| 20260507031844 | 0 | 304 | 0.0 | 0.0 | 0.00 | 0.00 | 0.00 | 61 | 1012.3 |
| 20260507030836 | 0 | 304 | 0.0 | 0.0 | 0.00 | 0.00 | 0.00 | 60 | 1012.4 |
| 20260507025821 | 0 | 304 | 0.0 | 0.0 | 0.00 | 0.00 | 0.00 | 58 | 1012.6 |
| 20260507024813 | 1 | 304 | 0.0 | 0.0 | 0.00 | 0.00 | 0.00 | 55 | 1012.4 |
| 20260507022627 | 3 | 304 | 0.0 | 0.0 | 0.00 | 0.00 | 0.00 | 43 | 1012.4 |
| 20260507021602 | 3 | 304 | 0.0 | 0.0 | 0.00 | 0.00 | 0.00 | 42 | 1012.4 |
| 20260507020605 | 4 | 304 | 0.0 | 3.2 | 0.00 | 0.00 | 0.00 | 38 | 1012.6 |
| 20260507015627 | 5 | 281 | 0.0 | 0.0 | 0.00 | 0.00 | 0.00 | 36 | 1012.5 |
| 20260507014645 | 5 | 295 | 0.0 | 0.0 | 0.00 | 0.00 | 0.00 | 36 | 1012.6 |
| 20260507013620 | 5 | 213 | 3.2 | 0.0 | 0.00 | 0.00 | 0.00 | 35 | 1012.5 |
| 20260507012637 | 5 | 238 | 0.0 | 11.3 | 0.00 | 0.00 | 0.00 | 35 | 1012.6 |
| 20260507011629 | 5 | 331 | 3.2 | 6.4 | 0.00 | 0.00 | 0.00 | 33 | 1012.6 |
| 20260507010634 | 5 | 5 | 0.0 | 4.8 | 0.00 | 0.00 | 0.00 | 34 | 1012.6 |
| 20260507005616 | 6 | 213 | 1.6 | 16.1 | 0.00 | 0.00 | 0.00 | 33 | 1012.5 |
| 20260507004627 | 6 | 210 | 3.2 | 0.0 | 0.00 | 0.00 | 0.00 | 35 | 1012.5 |
| 20260507003608 | 6 | 231 | 6.4 | 24.1 | 0.00 | 0.00 | 0.00 | 32 | 1012.5 |
| 20260507002632 | 6 | 200 | 8.0 | 24.1 | 0.00 | 0.00 | 0.00 | 31 | 1012.6 |
| 20260507001619 | 6 | 261 | 3.2 | 11.3 | 0.00 | 0.00 | 0.00 | 31 | 1012.8 |
| 20260506235412 | 6 | 231 | 6.4 | 17.7 | 0.00 | 0.00 | 0.00 | 32 | 1012.8 |
| 20260506234344 | 6 | 219 | 1.6 | 17.7 | 0.00 | 0.00 | 0.00 | 34 | 1013.2 |
| 20260506233357 | 7 | 229 | 8.0 | 29.0 | 0.00 | 0.00 | 0.00 | 30 | 1013.2 |
| 20260506232358 | 7 | 329 | 6.4 | 29.0 | 0.00 | 0.00 | 0.00 | 30 | 1013.2 |
| 20260506231414 | 7 | 300 | 4.8 | 24.1 | 0.00 | 0.00 | 0.00 | 31 | 1013.3 |
| 20260506230430 | 7 | 270 | 6.4 | 20.9 | 0.00 | 0.00 | 0.00 | 29 | 1013.4 |
| 20260506225431 | 7 | 333 | 6.4 | 20.9 | 0.00 | 0.00 | 0.00 | 30 | 1013.5 |
| 20260506224442 | 7 | 214 | 4.8 | 19.3 | 0.00 | 0.00 | 0.00 | 31 | 1013.3 |
| 20260506223454 | 7 | 17 | 6.4 | 25.7 | 0.00 | 0.00 | 0.00 | 33 | 1013.5 |
| 20260506222425 | 7 | 242 | 9.7 | 25.7 | 0.00 | 0.00 | 0.00 | 33 | 1013.5 |
| 20260506220336 | 6 | 255 | 9.7 | 27.4 | 0.00 | 0.00 | 0.00 | 32 | 1013.9 |
| 20260506215318 | 8 | 286 | 1.6 | 12.9 | 0.00 | 0.00 | 0.00 | 39 | 1014.0 |
| 20260506214320 | 6 | 271 | 6.4 | 22.5 | 0.00 | 0.00 | 0.00 | 37 | 1014.0 |
| 20260506213319 | 6 | 284 | 3.2 | 27.4 | 0.00 | 0.00 | 0.00 | 38 | 1014.2 |
| 20260506212247 | 7 | 297 | 8.0 | 27.4 | 0.00 | 0.00 | 0.00 | 34 | 1014.2 |
| 20260506211213 | 7 | 238 | 4.8 | 25.7 | 0.00 | 0.00 | 0.00 | 36 | 1014.3 |
| 20260506210221 | 7 | 12 | 4.8 | 27.4 | 0.00 | 0.00 | 0.00 | 34 | 1014.4 |
| 20260506205207 | 7 | 259 | 11.3 | 27.4 | 0.00 | 0.00 | 0.00 | 32 | 1014.4 |
| 20260506203044 | 6 | 323 | 8.0 | 32.2 | 0.00 | 0.00 | 0.00 | 34 | 1014.7 |
| 20260506202015 | 6 | 225 | 8.0 | 24.1 | 0.00 | 0.00 | 0.00 | 36 | 1014.8 |
| 20260506201025 | 6 | 5 | 4.8 | 30.6 | 0.00 | 0.00 | 0.00 | 36 | 1014.7 |
| 20260506200030 | 6 | 342 | 9.7 | 30.6 | 0.00 | 0.00 | 0.00 | 35 | 1014.8 |
| 20260506193900 | 5 | 310 | 3.2 | 27.4 | 0.00 | 0.00 | 0.00 | 36 | 1014.9 |
| 20260506192840 | 4 | 148 | 6.4 | 27.4 | 0.00 | 0.00 | 0.00 | 35 | 1014.9 |
| 20260506191808 | 5 | 198 | 6.4 | 22.5 | 0.00 | 0.00 | 0.00 | 38 | 1015.2 |
| 20260506190805 | 5 | 235 | 4.8 | 19.3 | 0.00 | 0.00 | 0.00 | 35 | 1015.2 |
| 20260506184640 | 4 | 145 | 8.0 | 24.1 | 0.00 | 0.00 | 0.00 | 39 | 1015.1 |
| 20260506183641 | 4 | 197 | 8.0 | 29.0 | 0.00 | 0.00 | 0.00 | 41 | 1015.3 |
| 20260506181509 | 4 | 198 | 6.4 | 17.7 | 0.00 | 0.00 | 0.00 | 44 | 1015.6 |
| 20260506180525 | 3 | 217 | 4.8 | 20.9 | 0.00 | 0.00 | 0.00 | 44 | 1015.5 |
| 20260506175542 | 3 | 253 | 4.8 | 20.9 | 0.00 | 0.00 | 0.00 | 46 | 1015.6 |
| 20260506174509 | 3 | 281 | 4.8 | 16.1 | 0.00 | 0.00 | 0.00 | 45 | 1015.7 |
| 20260506173458 | 3 | 319 | 6.4 | 24.1 | 0.00 | 0.00 | 0.00 | 45 | 1015.8 |
| 20260506172425 | 3 | 236 | 6.4 | 24.1 | 0.00 | 0.00 | 0.00 | 49 | 1015.9 |
| 20260506171356 | 2 | 276 | 6.4 | 25.7 | 0.00 | 0.00 | 0.00 | 55 | 1015.9 |
| 20260506170323 | 2 | 336 | 11.3 | 25.7 | 0.00 | 0.00 | 0.00 | 48 | 1015.9 |
| 20260506165305 | 1 | 219 | 3.2 | 19.3 | 0.00 | 0.00 | 0.00 | 51 | 1016.0 |
| 20260506164306 | 1 | 33 | 8.0 | 19.3 | 0.00 | 0.00 | 0.00 | 50 | 1016.0 |
| 20260506163248 | 1 | 281 | 4.8 | 19.3 | 0.00 | 0.00 | 0.00 | 54 | 1016.0 |
| 20260506161055 | 1 | 229 | 4.8 | 17.7 | 0.00 | 0.00 | 0.00 | 53 | 1016.1 |